Regional Weather Roundup
Issued by NWS Bismarck, ND

Home | Current Version | Previous Version | Text Only | Print | Product List | Glossary On
Versions: 1 2 3 4 5 6 7 8 9 10 11 12 13 14 15 16 17 18 19 20 21 22 23 24 25 26 27 28 29 30 31 32 33 34 35 36 37 38 39 40 41 42 43 44 45 46 47 48 49 50
000
ASUS43 KBIS 241020
RWRBIS

NWR BROADCAST TEXT
NATIONAL WEATHER SERVICE BISMARCK ND
500 AM CDT THU JUL 24 2014

NOTE: "FAIR" INDICATES FEW OR NO CLOUDS BELOW 12,000 FEET WITH NO
SIGNIFICANT WEATHER AND/OR OBSTRUCTIONS TO VISIBILITY.


CITY           SKY/WX    TMP DP  RH WIND       PRES   REMARKS
WILLISTON      MOCLDY    70  56  61 SE15G23   29.82F
MINOT          MOCLDY    63  60  90 E12       29.97F
MINOT AFB      MOCLDY    63  63  99 SE15      29.96F
BISMARCK       MOCLDY    66  57  72 SE13      29.98F
DICKINSON      CLEAR     63  56  78 SE18      29.87F
GARRISON         N/A     65  58  78 SE10      29.96F
HETTINGER ARPT MOCLDY    65  56  72 SE20G28   29.90F
JAMESTOWN      PTCLDY    62  58  86 SE9       30.08F
CARRINGTON     FAIR      59  59 100 SE10      30.08F
CROSBY           N/A     64  64 100 E8        29.90R
HARVEY         FAIR      59  59 100 SE12G20   30.03F
HAZEN          CLOUDY    64  55  72 SE12G20   29.92F
LINTON         CLOUDY    64  57  77 SE14G22   29.99F
MANDAN         FAIR      64  55  72 SE17      29.97F
RUGBY          FAIR      63  59  88 SE16G22   30.03F
STANLEY        FAIR      63  63 100 SE13      29.93F
TIOGA          FAIR      64  64 100 SE17G24   29.91F
WATFORD CITY   FAIR      64  57  77 SE12G23   29.85F
$$

CITY           SKY/WX    TMP DP  RH WIND       PRES   REMARKS
GRAND FORKS    MOCLDY    60  57  89 SE5       30.10F
GRAND FORKS AF MOCLDY    59  59  99 SE5       30.11F
DEVILS LAKE    MOCLDY    64  55  72 SE15G21   30.07S
FARGO          MOCLDY    62  58  86 SE6       30.11F
CANDO          FAIR      57  57 100 SE6       30.09S
CAVALIER       FAIR      55  54  94 CALM      30.10F
GRAFTON        FAIR      54  54 100 CALM      30.11F
GWINNER        SUNNY     63  63 100 SE7       30.11F
LANGDON        FAIR      55  50  82 SE7       30.10F
ROLLA          PTSUNNY   57  57 100 SE8       30.09F
WALHALLA         N/A     55  55 100 SE3         N/A
$$

CITY           SKY/WX    TMP DP  RH WIND       PRES   REMARKS
ABERDEEN       MOCLDY    59  56  89 SE6       30.08F
MOBRIDGE       PTCLDY    68  58  70 SE20G25   29.95F
BUFFALO          N/A     73  58  59 SE21G35   29.75F
RAPID CITY     CLOUDY    65  63  93 SE7       29.92F
GLASGOW        MOCLDY    68  63  84 NE12      29.84R
SIDNEY         MOCLDY    70  55  60 W7        29.89R
WOLF POINT     CLOUDY    68  60  75 NE16      29.85R
GLENDIVE       CLOUDY    68  55  64 NW29G37   29.88R
MILES CITY     PTCLDY    68  61  78 NE9       29.76F
BAKER          PTCLDY    63  55  75 E13       29.83F
$$

CITY           SKY/WX    TMP DP  RH WIND       PRES   REMARKS
BILLINGS       PTCLDY    69  60  73 SW13      29.82S
GREAT FALLS    CLEAR     61  53  75 NW14G28   29.88R
REGINA         MOCLDY    63  61  94 SE15G21   29.90S
ESTEVAN        CLOUDY    63  61  94 SE12      29.93F
$$



USA.gov is the U.S. government's official web portal to all federal, state and local government web resources and services.